This is the latest recevied weather packets stored in our database for station/object I1SXT-13. If no packets are shown the sender has not sent any weather packets the latest 10 day(s).
| Time | Temp. | Humidity | Pressure | Rain* | Wind** | Luminosity | Snow |
|---|---|---|---|---|---|---|---|
| 1777582468 | 15° C | 26% | 1023.5 hPa | 0 mm | - | - | - |
| 1777582164 | 15° C | 26% | 1023.5 hPa | 0 mm | - | - | - |
| 1777581867 | 15.56° C | 27% | 1023.3 hPa | 0 mm | - | - | - |
| 1777581570 | 15.56° C | 31% | 1023.3 hPa | 0 mm | - | - | - |
| 1777581266 | 15.56° C | 33% | 1023.8 hPa | 0 mm | - | - | - |
| 1777580969 | 15.56° C | 29% | 1023.5 hPa | 0 mm | - | - | - |
| 1777580665 | 16.11° C | 28% | 1023.2 hPa | 0 mm | - | - | - |
| 1777580368 | 16.11° C | 28% | 1023.3 hPa | 0 mm | - | - | - |
| 1777580064 | 16.11° C | 28% | 1022.9 hPa | 0 mm | - | - | - |
| 1777579767 | 16.11° C | 29% | 1022.9 hPa | 0 mm | - | - | - |
| 1777579470 | 16.11° C | 30% | 1022.9 hPa | 0 mm | - | - | - |
| 1777579170 | 16.11° C | 33% | 1023.3 hPa | 0 mm | - | - | - |
| 1777578565 | 16.11° C | 31% | 1022.8 hPa | 0 mm | - | - | - |
| 1777578267 | 16.11° C | 32% | 1023.4 hPa | 0 mm | - | - | - |
| 1777577964 | 16.11° C | 33% | 1023.4 hPa | 0 mm | - | - | - |
| 1777576768 | 16.11° C | 37% | 1022.8 hPa | 0 mm | - | - | - |
| 1777576464 | 16.11° C | 36% | 1022.9 hPa | 0 mm | - | - | - |
| 1777576167 | 16.11° C | 41% | 1023.2 hPa | 0 mm | - | - | - |
| 1777575870 | 16.11° C | 39% | 1022.5 hPa | 0 mm | - | - | - |
| 1777575566 | 16.11° C | 42% | 1022.7 hPa | 0 mm | - | - | - |
| 1777575269 | 16.11° C | 43% | 1022.6 hPa | 0 mm | - | - | - |
| 1777574965 | 16.11° C | 40% | 1022.5 hPa | 0 mm | - | - | - |
| 1777574668 | 16.11° C | 43% | 1023 hPa | 0 mm | - | - | - |
| 1777574364 | 16.11° C | 46% | 1022.2 hPa | 0 mm | - | - | - |
| 1777574069 | 16.11° C | 41% | 1022.1 hPa | 0 mm | - | - | - |
* Rain since midnight (hover to see other rain measurements)
** Current wind speed in m/s (hover to see current wind gust speed)